EN

Hourly Weather Botosani

Today, 20 October, Tuesday

Time Temperature Precipitation Wind Pressure Humidity
00:00 +8°C° 0 mm 1 mps 754 mmHg 66%
01:00 +8°C° 0 mm 1 mps 755 mmHg 67%
02:00 +7°C° 0 mm 1 mps 755 mmHg 69%
03:00 +7°C° 0 mm 1 mps 755 mmHg 70%
04:00 +7°C° 0 mm 1 mps 755 mmHg 70%
05:00 +6°C° 0 mm 1 mps 754 mmHg 71%
06:00 +7°C° 0 mm 1 mps 755 mmHg 69%
07:00 +7°C° 0 mm 1 mps 755 mmHg 67%
08:00 +8°C° 0 mm 1 mps 755 mmHg 65%
09:00 +9°C° 0 mm 1 mps 755 mmHg 60%
10:00 +11°C° 0 mm 1 mps 755 mmHg 54%
11:00 +13°C° 0 mm 1 mps 755 mmHg 49%
12:00 +13°C° 0 mm 1 mps 755 mmHg 47%
13:00 +14°C° 0 mm 1 mps 755 mmHg 45%
14:00 +14°C° 0 mm 1 mps 755 mmHg 43%
15:00 +14°C° 0 mm 1 mps 754 mmHg 47%
16:00 +13°C° 0 mm 2 mps 754 mmHg 51%
17:00 +12°C° 0 mm 2 mps 754 mmHg 54%
18:00 +10°C° 0 mm 2 mps 754 mmHg 57%
19:00 +9°C° 0 mm 2 mps 755 mmHg 60%
20:00 +9°C° 0 mm 2 mps 755 mmHg 62%
21:00 +8°C° 0 mm 2 mps 755 mmHg 64%
22:00 +8°C° 0 mm 2 mps 754 mmHg 65%
23:00 +7°C° 0 mm 3 mps 754 mmHg 66%

Tomorrow, 21 October, Wednesday

Time Temperature Precipitation Wind Pressure Humidity
00:00 +7°C° 0 mm 3 mps 754 mmHg 67%
01:00 +5°C° 0 mm 3 mps 754 mmHg 69%
02:00 +5°C° 0 mm 3 mps 754 mmHg 70%
03:00 +5°C° 0 mm 3 mps 753 mmHg 70%
04:00 +6°C° 0 mm 2 mps 753 mmHg 70%
05:00 +5°C° 0 mm 2 mps 752 mmHg 70%
06:00 +6°C° 0 mm 2 mps 752 mmHg 67%
07:00 +6°C° 0 mm 2 mps 752 mmHg 64%
08:00 +7°C° 0 mm 2 mps 752 mmHg 61%
09:00 +10°C° 0 mm 1 mps 751 mmHg 54%
10:00 +12°C° 0 mm 1 mps 751 mmHg 47%
11:00 +14°C° 0 mm 1 mps 751 mmHg 41%
12:00 +15°C° 0 mm 1 mps 751 mmHg 39%
13:00 +16°C° 0 mm 1 mps 751 mmHg 38%
14:00 +18°C° 0 mm 1 mps 750 mmHg 36%
15:00 +16°C° 0 mm 1 mps 750 mmHg 40%
16:00 +15°C° 0 mm 1 mps 750 mmHg 44%
17:00 +14°C° 0 mm 1 mps 749 mmHg 48%
18:00 +13°C° 0 mm 1 mps 750 mmHg 49%
19:00 +13°C° 0 mm 1 mps 750 mmHg 50%
20:00 +12°C° 0 mm 1 mps 750 mmHg 51%
21:00 +12°C° 0 mm 1 mps 750 mmHg 51%
22:00 +11°C° 0 mm 1 mps 750 mmHg 51%
23:00 +11°C° 0 mm 1 mps 750 mmHg 52%

Day after tomorrow, 22 October, Thursday

Time Temperature Precipitation Wind Pressure Humidity
00:00 +10°C° 0 mm 1 mps 750 mmHg 50%
01:00 +10°C° 0 mm 1 mps 750 mmHg 49%
02:00 +10°C° 0 mm 1 mps 750 mmHg 47%
03:00 +10°C° 0 mm 1 mps 751 mmHg 48%
04:00 +9°C° 0 mm 1 mps 751 mmHg 48%
05:00 +9°C° 0 mm 1 mps 751 mmHg 48%
06:00 +10°C° 0 mm 1 mps 751 mmHg 48%
07:00 +10°C° 0 mm 1 mps 751 mmHg 48%
08:00 +10°C° 0 mm 0 mps 751 mmHg 48%
09:00 +13°C° 0 mm 1 mps 751 mmHg 43%
10:00 +15°C° 0 mm 1 mps 751 mmHg 38%
11:00 +17°C° 0 mm 2 mps 751 mmHg 33%
12:00 +18°C° 0 mm 2 mps 751 mmHg 32%
13:00 +19°C° 0 mm 2 mps 750 mmHg 30%
14:00 +20°C° 0 mm 2 mps 750 mmHg 29%
15:00 +19°C° 0 mm 2 mps 750 mmHg 33%
16:00 +18°C° 0 mm 2 mps 750 mmHg 37%
17:00 +16°C° 0 mm 2 mps 749 mmHg 41%
18:00 +16°C° 0 mm 2 mps 749 mmHg 43%
19:00 +15°C° 0 mm 2 mps 750 mmHg 45%
20:00 +14°C° 0 mm 2 mps 750 mmHg 47%
21:00 +13°C° 0 mm 2 mps 749 mmHg 50%
22:00 +13°C° 0 mm 1 mps 749 mmHg 53%
23:00 +12°C° 0 mm 1 mps 749 mmHg 56%

23 October, Friday

Time Temperature Precipitation Wind Pressure Humidity
00:00 +12°C° 0 mm 1 mps 749 mmHg 58%
01:00 +12°C° 0 mm 1 mps 749 mmHg 59%
02:00 +12°C° 0 mm 1 mps 749 mmHg 61%
03:00 +11°C° 0 mm 1 mps 749 mmHg 61%
04:00 +10°C° 0 mm 0 mps 748 mmHg 61%
05:00 +10°C° 0 mm 0 mps 748 mmHg 61%
06:00 +10°C° 0 mm 0 mps 748 mmHg 59%
07:00 +11°C° 0 mm 0 mps 748 mmHg 58%
08:00 +12°C° 0 mm 1 mps 747 mmHg 57%
09:00 +14°C° 0 mm 1 mps 747 mmHg 52%
10:00 +16°C° 0 mm 1 mps 747 mmHg 46%
11:00 +19°C° 0 mm 1 mps 747 mmHg 40%
12:00 +20°C° 0 mm 1 mps 747 mmHg 39%
13:00 +21°C° 0 mm 1 mps 746 mmHg 38%
14:00 +21°C° 0 mm 1 mps 746 mmHg 36%
15:00 +20°C° 0 mm 1 mps 745 mmHg 40%
16:00 +19°C° 0 mm 1 mps 745 mmHg 44%
17:00 +18°C° 0 mm 1 mps 745 mmHg 48%
18:00 +16°C° 0 mm 1 mps 745 mmHg 49%
19:00 +15°C° 0 mm 1 mps 746 mmHg 51%
20:00 +15°C° 0 mm 1 mps 746 mmHg 52%
21:00 +14°C° 0 mm 1 mps 746 mmHg 53%
22:00 +14°C° 0 mm 1 mps 746 mmHg 55%
23:00 +14°C° 0 mm 2 mps 746 mmHg 56%

24 October, Saturday

Time Temperature Precipitation Wind Pressure Humidity
00:00 +13°C° 0 mm 1 mps 746 mmHg 57%
01:00 +13°C° 0 mm 1 mps 746 mmHg 59%
02:00 +13°C° 0 mm 1 mps 746 mmHg 60%
03:00 +13°C° 0 mm 1 mps 746 mmHg 61%
04:00 +13°C° 0 mm 1 mps 746 mmHg 62%
05:00 +12°C° 0 mm 0 mps 746 mmHg 63%
06:00 +12°C° 0 mm 0 mps 746 mmHg 63%
07:00 +12°C° 0 mm 0 mps 746 mmHg 63%
08:00 +13°C° 0 mm 0 mps 746 mmHg 63%
09:00 +13°C° 0 mm 0 mps 746 mmHg 62%
10:00 +13°C° 0 mm 0 mps 746 mmHg 61%
11:00 +14°C° 0 mm 0 mps 746 mmHg 60%
12:00 +15°C° 0 mm 1 mps 746 mmHg 60%
13:00 +16°C° 0 mm 1 mps 746 mmHg 59%
14:00 +16°C° 0 mm 2 mps 746 mmHg 58%
15:00 +15°C° 0 mm 2 mps 746 mmHg 62%
16:00 +15°C° 0 mm 2 mps 746 mmHg 66%
17:00 +14°C° 0 mm 2 mps 746 mmHg 69%
18:00 +14°C° 0 mm 2 mps 747 mmHg 73%
19:00 +14°C° 0 mm 2 mps 747 mmHg 76%
20:00 +13°C° 0 mm 2 mps 748 mmHg 80%
21:00 +13°C° 0 mm 2 mps 748 mmHg 79%
22:00 +13°C° 0 mm 2 mps 748 mmHg 79%
23:00 +13°C° 0 mm 2 mps 748 mmHg 78%

25 October, Sunday

Time Temperature Precipitation Wind Pressure Humidity
00:00 +12°C° 0 mm 3 mps 748 mmHg 76%
01:00 +12°C° 0 mm 3 mps 749 mmHg 74%
02:00 +12°C° 0 mm 3 mps 749 mmHg 72%
03:00 +11°C° 0 mm 4 mps 749 mmHg 70%
04:00 +11°C° 0 mm 4 mps 749 mmHg 68%
05:00 +10°C° 0 mm 4 mps 749 mmHg 67%
06:00 +10°C° 0 mm 4 mps 750 mmHg 66%
07:00 +10°C° 0 mm 4 mps 750 mmHg 65%
08:00 +10°C° 0 mm 4 mps 750 mmHg 64%
09:00 +10°C° 0 mm 4 mps 750 mmHg 60%
10:00 +11°C° 0 mm 4 mps 750 mmHg 56%
11:00 +12°C° 0 mm 5 mps 750 mmHg 53%
12:00 +12°C° 0 mm 4 mps 750 mmHg 50%
13:00 +13°C° 0 mm 4 mps 750 mmHg 47%
14:00 +13°C° 0 mm 4 mps 750 mmHg 45%
15:00 +13°C° 0 mm 3 mps 749 mmHg 48%
16:00 +12°C° 0 mm 3 mps 749 mmHg 52%
17:00 +12°C° 0 mm 2 mps 749 mmHg 55%
18:00 +10°C° 0 mm 2 mps 750 mmHg 59%
19:00 +9°C° 0 mm 2 mps 750 mmHg 62%
20:00 +9°C° 0 mm 1 mps 751 mmHg 66%
21:00 +9°C° 0 mm 1 mps 751 mmHg 69%
22:00 +8°C° 0 mm 1 mps 751 mmHg 71%
23:00 +7°C° 0 mm 0 mps 751 mmHg 74%

26 October, Monday

Time Temperature Precipitation Wind Pressure Humidity
00:00 +7°C° 0 mm 0 mps 751 mmHg 76%
01:00 +6°C° 0 mm 0 mps 751 mmHg 77%
02:00 +6°C° 0 mm 0 mps 751 mmHg 79%
03:00 +7°C° 0 mm 1 mps 751 mmHg 81%
04:00 +6°C° 0 mm 1 mps 750 mmHg 82%
05:00 +6°C° 0 mm 1 mps 750 mmHg 83%
06:00 +6°C° 0 mm 1 mps 750 mmHg 82%
07:00 +7°C° 0 mm 1 mps 750 mmHg 81%
08:00 +6°C° 0 mm 2 mps 750 mmHg 80%
09:00 +8°C° 0 mm 3 mps 750 mmHg 72%
10:00 +10°C° 0 mm 4 mps 750 mmHg 63%
11:00 +10°C° 0 mm 5 mps 750 mmHg 55%
12:00 +12°C° 0 mm 5 mps 749 mmHg 53%
13:00 +13°C° 0 mm 5 mps 749 mmHg 51%
14:00 +14°C° 0 mm 6 mps 748 mmHg 49%
15:00 +13°C° 0 mm 5 mps 748 mmHg 52%
16:00 +12°C° 0 mm 5 mps 748 mmHg 56%
17:00 +11°C° 0 mm 4 mps 747 mmHg 59%
18:00 +10°C° 0 mm 4 mps 747 mmHg 62%
19:00 +10°C° 0 mm 4 mps 747 mmHg 64%
20:00 +8°C° 0 mm 4 mps 747 mmHg 67%
21:00 +8°C° 0 mm 4 mps 747 mmHg 68%
22:00 +7°C° 0 mm 4 mps 747 mmHg 69%
23:00 +7°C° 0 mm 4 mps 747 mmHg 70%
Show more